period_start,C,m1,H,J0,J1,J2,J3,J4,J5,JA,JB,JC,JD,JJ,JK,JN,#
2015-12-14 00:02:23,0.16,7.57,0.00,13.73,18.19,21.94,15.11,51.27,1017.10,2062.99,1565.43,1780.59,1990.12,599.94,615.49,40.84,0000 0000 0000 0000 000000
2015-12-14 00:07:24,0.16,7.58,0.00,13.69,18.18,21.90,15.08,51.25,1017.10,2062.99,1564.24,1779.57,1989.07,599.87,615.68,40.89,0000 0000 0000 0000 000000
2015-12-14 00:12:25,0.10,7.59,0.00,13.69,18.16,21.91,15.15,51.22,1017.10,2063.01,1563.48,1778.96,1988.13,600.13,615.80,40.94,0000 0000 0000 0000 000000
2015-12-14 00:17:26,0.13,7.59,0.00,13.68,18.14,21.88,15.06,51.22,1017.10,2063.02,1562.62,1778.19,1987.60,599.64,615.32,40.99,0000 0000 0000 0000 000000
2015-12-14 00:22:27,0.12,7.60,0.00,13.67,18.12,21.86,15.13,51.21,1017.10,2063.06,1561.62,1777.61,1986.79,600.02,615.72,41.04,0000 0000 0000 0000 000000
2015-12-14 00:27:29,0.14,7.61,0.00,13.67,18.09,21.86,15.16,51.33,1017.11,2063.15,1560.57,1776.89,1985.99,599.88,615.55,41.09,0000 0000 0000 0000 000000
2015-12-14 00:32:30,0.22,7.62,0.00,13.64,18.07,21.83,15.17,51.38,1017.11,2063.46,1559.21,1775.87,1984.90,600.01,615.84,41.14,0000 0000 0000 0000 000000
2015-12-14 00:37:31,0.27,7.63,0.00,13.59,18.05,21.79,15.16,51.45,1017.12,2063.86,1557.63,1774.70,1983.71,600.14,616.04,41.19,0000 0000 0000 0000 000000
2015-12-14 00:42:32,0.22,7.64,0.00,13.58,18.04,21.74,15.15,51.38,1017.11,2063.93,1556.01,1773.52,1982.46,600.21,615.98,41.24,0000 0000 0000 0000 000000
2015-12-14 00:47:33,0.19,7.65,0.00,13.56,18.02,21.76,15.14,51.23,1017.12,2063.97,1554.53,1772.36,1981.20,600.24,616.20,41.29,0000 0000 0000 0000 000000
2015-12-14 00:52:35,0.15,7.66,0.00,13.55,17.99,21.81,15.13,51.41,1017.12,2063.98,1553.36,1771.46,1980.17,600.16,616.01,41.34,0000 0000 0000 0000 000000
2015-12-14 00:57:36,0.12,7.67,0.00,13.54,17.98,21.73,15.17,51.21,1017.14,2063.98,1552.42,1770.71,1979.22,600.10,616.13,41.39,0000 0000 0000 0000 000000
2015-12-14 01:02:37,0.13,7.68,0.00,13.50,17.96,21.74,15.14,51.13,1017.21,2063.99,1551.30,1769.94,1978.36,599.93,616.11,41.44,0000 0000 0000 0000 000000
2015-12-14 01:07:39,0.18,7.68,0.00,13.49,17.94,21.74,15.02,51.26,1017.34,2063.99,1549.92,1768.98,1977.40,599.65,615.94,41.50,0000 0000 0000 0000 000000
2015-12-14 01:12:40,0.15,7.69,0.00,13.49,17.92,21.68,15.13,51.17,1017.50,2063.99,1548.73,1768.08,1976.50,600.16,616.58,41.55,0000 0000 0000 0000 000000
2015-12-14 01:17:41,0.08,7.70,0.00,13.48,17.89,21.69,15.13,51.13,1017.59,2064.02,1547.94,1767.61,1975.92,600.29,616.70,41.60,0000 0000 0000 0000 000000
2015-12-14 01:22:43,0.11,7.70,0.00,13.46,17.87,21.64,15.23,51.27,1017.59,2064.01,1547.08,1766.99,1975.09,600.43,616.84,41.65,0000 0000 0000 0000 000000
2015-12-14 01:27:44,0.14,7.71,0.00,13.44,17.85,21.57,15.16,51.22,1017.59,2064.02,1546.29,1766.19,1974.44,600.00,616.62,41.70,0000 0000 0000 0000 000000
2015-12-14 01:32:45,0.03,7.71,0.00,13.43,17.83,21.58,15.17,51.27,1017.59,2064.07,1545.82,1765.99,1974.00,600.20,616.76,41.75,0000 0000 0000 0000 000000
2015-12-14 01:37:47,0.15,7.72,0.00,13.43,17.81,21.54,15.13,51.12,1017.60,2064.19,1544.97,1765.25,1973.37,600.07,616.60,41.80,0000 0000 0000 0000 000000
2015-12-14 01:42:48,0.14,7.73,0.00,13.42,17.79,21.51,15.13,51.26,1017.61,2064.60,1544.07,1764.83,1972.85,600.02,616.65,41.85,0000 0000 0000 0000 000000
2015-12-14 01:47:49,0.16,7.74,0.00,13.38,17.77,21.50,15.12,51.26,1017.64,2064.90,1543.02,1764.00,1971.98,600.00,616.70,41.90,0000 0000 0000 0000 000000
2015-12-14 01:52:51,0.15,7.75,0.00,13.32,17.75,21.51,15.15,51.17,1017.72,2064.95,1542.09,1763.16,1971.08,600.17,617.01,41.95,0000 0000 0000 0000 000000
2015-12-14 01:57:52,0.12,7.75,0.00,13.32,17.73,21.49,15.17,51.11,1017.79,2064.95,1541.41,1762.68,1970.30,600.22,616.99,42.00,0000 0000 0000 0000 000000
2015-12-14 02:02:53,0.10,7.76,0.00,13.31,17.71,21.42,15.21,51.29,1017.71,2064.95,1540.32,1762.02,1969.85,599.91,616.76,42.05,0000 0000 0000 0000 000000
2015-12-14 02:07:55,0.13,7.76,0.00,13.30,17.69,21.44,15.16,51.20,1017.65,2064.99,1539.55,1761.37,1969.06,600.07,616.89,42.10,0000 0000 0000 0000 000000
2015-12-14 02:12:56,0.04,7.77,0.00,13.26,17.68,21.44,15.14,51.26,1017.64,2064.99,1538.97,1760.99,1968.62,600.22,617.07,42.15,0000 0000 0000 0000 000000
2015-12-14 02:17:57,0.12,7.77,0.00,13.26,17.67,21.40,15.13,51.22,1017.60,2064.99,1538.14,1760.36,1968.01,599.90,616.81,42.20,0000 0000 0000 0000 000000
2015-12-14 02:22:58,0.07,7.77,0.00,13.24,17.65,21.41,15.18,51.23,1017.60,2064.99,1537.70,1760.00,1967.43,600.15,617.18,42.25,0000 0000 0000 0000 000000
2015-12-14 02:28:00,0.08,7.78,0.00,13.23,17.63,21.43,15.09,51.27,1017.60,2064.99,1537.03,1759.48,1966.98,599.69,616.74,42.31,0000 0000 0000 0000 000000
2015-12-14 02:33:01,0.09,7.78,0.00,13.23,17.62,21.38,15.24,51.30,1017.60,2064.99,1536.43,1759.00,1966.23,600.30,617.14,42.36,0000 0000 0000 0000 000000
2015-12-14 02:38:02,0.04,7.79,0.00,13.19,17.60,21.39,15.22,51.29,1017.60,2065.00,1535.99,1758.58,1965.99,600.27,617.41,42.41,0000 0000 0000 0000 000000
2015-12-14 02:43:04,0.11,7.79,0.00,13.19,17.59,21.34,15.17,51.36,1017.59,2065.01,1535.23,1758.02,1965.35,600.08,617.03,42.46,0000 0000 0000 0000 000000
2015-12-14 02:48:05,0.02,7.79,0.00,13.19,17.57,21.36,15.26,51.38,1017.64,2065.02,1534.98,1757.80,1964.98,600.19,617.27,42.51,0000 0000 0000 0000 000000
2015-12-14 02:53:06,0.13,7.80,0.00,13.16,17.54,21.33,15.16,51.26,1017.72,2065.11,1534.60,1757.12,1964.40,599.90,617.07,42.56,0000 0000 0000 0000 000000
2015-12-14 02:58:08,0.03,7.80,0.00,13.13,17.53,21.30,15.19,51.26,1017.71,2065.17,1534.01,1756.98,1964.00,599.92,617.11,42.61,0000 0000 0000 0000 000000
2015-12-14 03:03:09,0.16,7.81,0.00,13.13,17.52,21.30,15.19,51.22,1017.70,2065.33,1533.39,1756.40,1963.49,600.09,617.44,42.66,0000 0000 0000 0000 000000
2015-12-14 03:08:10,0.07,7.82,0.00,13.13,17.49,21.24,15.09,51.16,1017.83,2065.71,1532.88,1756.00,1963.01,600.13,617.37,42.71,0000 0000 0000 0000 000000
2015-12-14 03:13:11,0.11,7.82,0.00,13.11,17.48,21.22,15.18,51.17,1017.97,2065.86,1532.09,1755.78,1962.62,599.98,617.36,42.76,0000 0000 0000 0000 000000
2015-12-14 03:18:13,0.06,7.82,0.00,13.09,17.46,21.22,15.13,51.07,1017.91,2065.93,1531.86,1755.07,1962.02,600.11,617.55,42.81,0000 0000 0000 0000 000000
2015-12-14 03:23:14,0.07,7.83,0.00,13.07,17.43,21.21,15.11,51.15,1017.96,2065.98,1531.06,1754.95,1961.76,599.87,617.27,42.86,0000 0000 0000 0000 000000
2015-12-14 03:28:15,0.12,7.83,0.00,13.06,17.42,21.19,15.14,51.13,1018.06,2065.97,1530.42,1754.20,1961.03,599.76,617.31,42.91,0000 0000 0000 0000 000000
2015-12-14 03:33:17,0.02,7.84,0.00,13.05,17.39,21.15,15.17,51.36,1018.08,2065.98,1529.99,1753.99,1960.84,599.71,617.36,42.96,0000 0000 0000 0000 000000
2015-12-14 03:38:18,0.12,7.84,0.00,13.01,17.38,21.14,15.19,51.17,1018.08,2065.99,1529.35,1753.52,1960.10,600.16,617.79,43.01,0000 0000 0000 0000 000000
2015-12-14 03:43:19,0.02,7.84,0.00,12.99,17.36,21.13,15.20,51.29,1018.08,2065.99,1528.95,1753.01,1959.96,600.08,617.79,43.06,0000 0000 0000 0000 000000
2015-12-14 03:48:21,0.10,7.85,0.00,13.01,17.34,21.12,15.26,51.13,1018.06,2066.00,1528.19,1752.84,1959.24,599.87,617.58,43.11,0000 0000 0000 0000 000000
2015-12-14 03:53:22,0.06,7.85,0.00,13.02,17.32,21.11,15.18,51.09,1018.08,2066.01,1527.90,1752.08,1958.93,600.24,617.95,43.16,0000 0000 0000 0000 000000
2015-12-14 03:58:23,0.08,7.86,0.00,12.98,17.31,21.09,15.23,51.13,1018.08,2066.02,1527.09,1751.99,1958.16,599.91,617.53,43.21,0000 0000 0000 0000 000000
2015-12-14 04:03:24,0.11,7.86,0.00,12.98,17.29,21.07,15.23,51.27,1018.08,2066.03,1526.55,1751.38,1957.93,600.28,618.08,43.27,0000 0000 0000 0000 000000
2015-12-14 04:08:25,0.06,7.87,0.00,12.97,17.27,21.07,15.20,51.25,1018.11,2066.04,1525.98,1750.99,1957.12,600.15,618.00,43.32,0000 0000 0000 0000 000000
2015-12-14 04:13:27,0.11,7.87,0.00,12.95,17.25,21.04,15.24,51.25,1018.15,2066.14,1525.26,1750.44,1956.88,600.25,618.13,43.37,0000 0000 0000 0000 000000
2015-12-14 04:18:28,0.08,7.87,0.00,12.94,17.23,21.05,15.19,51.04,1018.18,2066.20,1524.74,1750.00,1956.11,600.07,618.11,43.42,0000 0000 0000 0000 000000
2015-12-14 04:23:29,0.11,7.88,0.00,12.91,17.22,21.03,15.18,51.02,1018.42,2066.49,1524.02,1749.63,1955.87,600.12,618.32,43.47,0000 0000 0000 0000 000000
2015-12-14 04:28:31,0.11,7.89,0.00,12.88,17.20,21.01,15.20,51.22,1018.40,2066.78,1523.76,1749.02,1955.08,599.73,618.01,43.52,0000 0000 0000 0000 000000
2015-12-14 04:33:32,0.06,7.89,0.00,12.87,17.19,20.99,15.20,51.28,1018.42,2066.94,1523.04,1748.92,1954.91,600.10,618.39,43.57,0000 0000 0000 0000 000000
2015-12-14 04:38:34,0.14,7.90,0.00,12.88,17.17,20.96,15.23,51.18,1018.54,2066.96,1522.39,1748.12,1954.15,600.32,618.56,43.62,0000 0000 0000 0000 000000
2015-12-14 04:43:35,0.03,7.90,0.00,12.86,17.14,20.96,15.19,51.13,1018.57,2066.97,1521.86,1747.97,1953.92,599.81,618.09,43.67,0000 0000 0000 0000 000000
2015-12-14 04:48:36,0.13,7.91,0.00,12.84,17.13,20.96,15.17,51.16,1018.57,2066.99,1521.10,1747.25,1953.11,599.80,618.18,43.72,0000 0000 0000 0000 000000
2015-12-14 04:53:38,0.06,7.91,0.00,12.83,17.10,20.94,15.24,51.14,1018.57,2066.99,1520.48,1747.00,1952.93,600.24,618.71,43.77,0000 0000 0000 0000 000000
2015-12-14 04:58:40,0.08,7.91,0.00,12.82,17.08,20.93,15.23,51.10,1018.57,2066.99,1520.00,1746.58,1952.17,599.94,618.35,43.82,0000 0000 0000 0000 000000
2015-12-14 05:03:42,0.07,7.92,0.00,12.79,17.06,20.90,15.21,51.13,1018.57,2066.99,1519.28,1746.01,1951.98,599.83,618.33,43.87,0000 0000 0000 0000 000000
2015-12-14 05:08:43,0.11,7.92,0.00,12.74,17.04,20.89,15.27,51.30,1018.58,2067.00,1518.60,1745.69,1951.32,599.97,618.59,43.92,0000 0000 0000 0000 000000
2015-12-14 05:13:45,0.06,7.93,0.00,12.74,17.02,20.86,15.16,51.35,1018.58,2067.02,1518.00,1745.02,1950.87,599.87,618.54,43.97,0000 0000 0000 0000 000000
2015-12-14 05:18:47,0.10,7.93,0.00,12.73,17.01,20.85,15.17,51.31,1018.59,2067.04,1517.22,1744.81,1950.11,599.87,618.56,44.02,0000 0000 0000 0000 000000
2015-12-14 05:23:49,0.09,7.94,0.00,12.69,16.99,20.86,15.26,51.37,1018.60,2067.05,1516.64,1744.06,1949.85,600.36,619.06,44.08,0000 0000 0000 0000 000000
2015-12-14 05:28:50,0.07,7.94,0.00,12.65,16.97,20.87,15.27,51.35,1018.68,2067.19,1516.01,1743.93,1949.07,600.31,619.19,44.13,0000 0000 0000 0000 000000
2015-12-14 05:33:52,0.20,7.95,0.00,12.52,16.95,20.87,15.21,51.36,1018.83,2067.76,1515.34,1743.17,1948.88,599.68,618.95,44.18,0000 0000 0000 0000 000000
2015-12-14 05:38:54,0.06,7.95,0.00,12.38,16.92,20.83,15.30,51.39,1018.94,2067.94,1514.95,1742.98,1948.13,600.18,619.79,44.23,0000 0000 0000 0000 000000
2015-12-14 05:43:56,0.10,7.96,0.00,12.29,16.88,20.81,15.24,51.35,1019.03,2067.97,1514.24,1742.56,1947.97,599.81,619.67,44.28,0000 0000 0000 0000 000000
2015-12-14 05:48:58,0.07,7.96,0.00,12.21,16.84,20.75,15.19,51.33,1019.04,2067.99,1513.80,1742.02,1947.28,599.51,619.61,44.33,0000 0000 0000 0000 000000
2015-12-14 05:54:00,0.04,7.97,0.00,12.14,16.80,20.71,15.22,51.26,1019.06,2068.00,1513.09,1741.97,1946.99,599.93,620.13,44.38,0000 0000 0000 0000 000000
2015-12-14 05:59:02,0.09,7.97,0.00,12.07,16.75,20.77,15.32,51.23,1019.06,2068.05,1512.90,1741.26,1946.40,599.99,620.26,44.43,0000 0000 0000 0000 000000
2015-12-14 06:04:03,0.11,7.97,0.00,12.03,16.71,20.71,15.16,51.19,1019.06,2068.32,1512.12,1741.00,1946.01,599.97,620.49,44.48,0000 0000 0000 0000 000000
2015-12-14 06:09:05,0.10,7.98,0.00,11.98,16.66,20.66,15.31,51.32,1019.06,2068.91,1511.85,1740.89,1945.78,600.15,620.71,44.53,0000 0000 0000 0000 000000
2015-12-14 06:14:06,0.13,7.99,0.00,11.96,16.61,20.68,15.24,51.22,1019.08,2068.97,1511.05,1740.12,1945.05,600.05,620.61,44.58,0000 0000 0000 0000 000000
2015-12-14 06:19:08,0.05,7.99,0.00,11.92,16.56,20.58,15.26,51.27,1019.09,2068.99,1510.39,1740.00,1944.98,600.04,620.70,44.63,0000 0000 0000 0000 000000
2015-12-14 06:24:10,0.06,7.99,0.00,11.90,16.51,20.51,15.28,51.44,1019.09,2069.00,1509.98,1739.73,1944.38,599.96,620.68,44.68,0000 0000 0000 0000 000000
2015-12-14 06:29:12,0.10,8.00,0.00,11.86,16.46,20.51,15.22,51.32,1019.10,2069.10,1509.33,1739.07,1944.01,599.89,620.80,44.73,0000 0000 0000 0000 000000
2015-12-14 06:34:13,0.10,8.00,0.00,11.84,16.41,20.44,15.31,51.27,1019.13,2069.65,1508.98,1738.99,1943.90,600.03,620.77,44.78,0000 0000 0000 0000 000000
2015-12-14 06:39:14,0.16,8.01,0.00,11.84,16.37,20.41,15.27,51.38,1019.23,2069.93,1508.15,1738.47,1943.11,600.11,621.00,44.83,0000 0000 0000 0000 000000
2015-12-14 06:44:15,0.04,8.02,0.00,11.84,16.32,20.48,15.32,51.42,1019.35,2069.98,1507.69,1738.00,1942.95,600.33,621.40,44.89,0000 0000 0000 0000 000000
2015-12-14 06:49:17,0.06,8.02,0.00,11.88,16.27,20.38,15.25,51.52,1019.46,2070.00,1507.01,1737.93,1942.29,599.61,620.71,44.94,0000 0000 0000 0000 000000
2015-12-14 06:54:18,0.10,8.02,0.00,11.90,16.23,20.23,15.25,51.34,1019.52,2070.01,1506.60,1737.27,1942.00,600.12,621.10,44.99,0000 0000 0000 0000 000000
2015-12-14 06:59:20,0.05,8.03,0.00,11.92,16.21,20.14,15.29,51.42,1019.53,2070.07,1506.01,1737.00,1941.65,600.06,621.02,45.04,0000 0000 0000 0000 000000
2015-12-14 07:04:21,0.11,8.03,0.00,11.94,16.18,20.18,15.29,51.38,1019.52,2070.25,1505.63,1736.75,1941.03,600.25,621.18,45.09,0000 0000 0000 0000 000000
2015-12-14 07:09:22,0.13,8.04,0.00,11.95,16.16,20.18,15.21,51.58,1019.55,2070.66,1504.96,1736.04,1940.72,599.98,621.08,45.14,0000 0000 0000 0000 000000
2015-12-14 07:14:23,0.09,8.05,0.00,11.96,16.14,20.17,15.26,51.49,1019.55,2070.79,1504.11,1735.85,1940.03,600.28,621.19,45.19,0000 0000 0000 0000 000000
2015-12-14 07:19:25,0.12,8.05,0.00,11.98,16.14,20.22,15.28,51.61,1019.55,2070.88,1503.69,1735.11,1939.56,599.91,620.81,45.24,0000 0000 0000 0000 000000
2015-12-14 07:24:26,0.05,8.05,0.00,12.06,16.14,20.13,15.27,51.65,1019.55,2070.88,1503.00,1734.80,1939.00,599.85,620.48,45.29,0000 0000 0000 0000 000000
2015-12-14 07:29:27,0.13,8.06,0.00,12.11,16.14,20.15,15.23,51.61,1019.58,2070.94,1502.20,1734.06,1938.34,600.12,620.76,45.34,0000 0000 0000 0000 000000
2015-12-14 07:34:29,0.12,8.06,0.00,12.16,16.15,20.23,15.23,51.73,1019.71,2070.93,1501.41,1733.54,1937.82,600.01,620.61,45.39,0000 0000 0000 0000 000000
2015-12-14 07:39:30,0.10,8.07,0.00,12.18,16.17,20.16,15.23,51.71,1019.77,2070.90,1500.47,1732.94,1937.04,599.97,620.48,45.44,0000 0000 0000 0000 000000
2015-12-14 07:44:31,0.09,8.08,0.00,12.19,16.17,20.19,15.24,51.67,1019.77,2070.93,1499.97,1732.14,1936.31,600.08,620.65,45.49,0000 0000 0000 0000 000000
2015-12-14 07:49:33,0.08,8.08,0.00,12.21,16.19,20.22,15.20,51.58,1019.80,2070.91,1499.27,1731.82,1935.82,599.95,620.42,45.54,0000 0000 0000 0000 000000
2015-12-14 07:54:34,0.08,8.09,0.00,12.23,16.21,20.21,15.25,51.82,1019.67,2070.75,1498.69,1731.06,1935.06,600.26,620.87,45.59,0000 0000 0000 0000 000000
2015-12-14 07:59:35,0.07,8.09,0.00,12.25,16.22,20.31,15.25,51.66,1019.66,2070.45,1497.93,1730.59,1934.34,600.55,620.89,45.64,0000 0000 0000 0000 000000
2015-12-14 08:04:37,0.06,8.09,0.00,12.28,16.24,20.35,15.26,51.66,1019.78,2070.18,1497.08,1729.99,1933.79,600.00,620.53,45.69,0000 0000 0000 0000 000000
2015-12-14 08:09:38,0.12,8.10,0.00,12.27,16.26,20.29,15.21,51.70,1019.96,2070.09,1496.44,1729.29,1933.04,600.01,620.48,45.74,0000 0000 0000 0000 000000
2015-12-14 08:14:40,0.04,8.10,0.00,12.28,16.28,20.33,15.29,51.75,1019.99,2070.04,1495.92,1728.94,1932.38,600.50,620.95,45.80,0000 0000 0000 0000 000000
2015-12-14 08:19:41,0.12,8.11,0.00,12.29,16.29,20.35,15.23,51.80,1020.01,2070.03,1495.09,1728.15,1931.91,599.68,620.12,45.85,0000 0000 0000 0000 000000
2015-12-14 08:24:42,0.08,8.11,0.00,12.32,16.32,20.35,15.19,51.65,1020.02,2070.00,1494.46,1727.93,1931.12,599.76,620.29,45.90,0000 0000 0000 0000 000000
2015-12-14 08:29:44,0.11,8.12,0.00,12.34,16.33,20.37,15.21,51.65,1020.04,2070.00,1493.80,1727.16,1930.54,600.07,620.42,45.95,0000 0000 0000 0000 000000
2015-12-14 08:34:45,0.05,8.12,0.00,12.35,16.34,20.34,15.25,51.72,1020.05,2070.00,1493.06,1726.93,1929.96,599.80,620.07,46.00,0000 0000 0000 0000 000000
2015-12-14 08:39:46,0.14,8.13,0.00,12.37,16.37,20.42,15.21,51.66,1020.05,2070.00,1492.49,1726.16,1929.19,599.89,620.20,46.05,0000 0000 0000 0000 000000
2015-12-14 08:44:47,0.05,8.13,0.00,12.37,16.38,20.36,15.19,51.63,1020.04,2070.00,1491.85,1725.91,1928.84,599.74,619.96,46.10,0000 0000 0000 0000 000000
2015-12-14 08:49:49,0.13,8.14,0.00,12.38,16.39,20.37,15.21,51.66,1020.13,2069.99,1491.02,1725.11,1928.06,600.13,620.51,46.15,0000 0000 0000 0000 000000
2015-12-14 08:54:50,0.12,8.14,0.00,12.38,16.41,20.37,15.22,51.71,1020.14,2069.99,1490.26,1724.68,1927.45,599.92,620.25,46.20,0000 0000 0000 0000 000000
2015-12-14 08:59:51,0.07,8.15,0.00,12.37,16.42,20.49,15.26,51.79,1020.32,2069.98,1489.69,1724.04,1926.89,600.17,620.59,46.25,0000 0000 0000 0000 000000
2015-12-14 09:04:52,0.11,8.15,0.00,12.37,16.44,20.45,15.29,51.77,1020.50,2069.98,1489.02,1723.59,1926.08,600.34,620.92,46.30,0000 0000 0000 0000 000000
2015-12-14 09:09:53,0.10,8.16,0.00,12.39,16.44,20.50,15.21,51.61,1020.52,2069.97,1488.27,1723.01,1925.59,600.01,620.62,46.35,0000 0000 0000 0000 000000
2015-12-14 09:14:54,0.09,8.16,0.00,12.38,16.47,20.43,15.29,51.67,1020.52,2069.91,1487.74,1722.32,1924.94,599.86,620.41,46.40,0000 0000 0000 0000 000000
2015-12-14 09:19:56,0.07,8.17,0.00,12.38,16.47,20.40,15.19,51.79,1020.52,2069.79,1486.98,1721.89,1924.14,599.92,620.50,46.45,0000 0000 0000 0000 000000
2015-12-14 09:24:57,0.09,8.17,0.00,12.38,16.49,20.55,15.21,51.82,1020.53,2069.58,1486.18,1721.10,1923.58,600.12,620.66,46.50,0000 0000 0000 0000 000000
2015-12-14 09:29:59,0.04,8.17,0.00,12.39,16.50,20.51,15.34,51.68,1020.53,2069.38,1485.72,1720.75,1922.97,600.33,620.81,46.55,0000 0000 0000 0000 000000
2015-12-14 09:35:00,0.09,8.18,0.00,12.38,16.51,20.51,15.28,51.67,1020.52,2069.27,1485.01,1720.04,1922.24,599.82,620.42,46.60,0000 0000 0000 0000 000000
2015-12-14 09:40:01,0.08,8.18,0.00,12.35,16.52,20.49,15.33,51.78,1020.53,2069.15,1484.25,1719.73,1921.77,600.04,620.63,46.66,0000 0000 0000 0000 000000
2015-12-14 09:45:02,0.08,8.19,0.00,12.35,16.52,20.57,15.19,51.60,1020.52,2069.08,1483.71,1719.05,1921.05,599.92,620.50,46.71,0000 0000 0000 0000 000000
2015-12-14 09:50:03,0.08,8.19,0.00,12.33,16.52,20.48,15.23,51.68,1020.52,2069.03,1483.01,1718.70,1920.53,599.78,620.37,46.76,0000 0000 0000 0000 000000
2015-12-14 09:55:04,0.10,8.20,0.00,12.33,16.53,20.43,15.30,51.65,1020.53,2069.04,1482.30,1718.03,1920.01,600.19,621.08,46.81,0000 0000 0000 0000 000000
2015-12-14 10:00:05,0.09,8.20,0.00,12.33,16.52,20.48,15.21,51.64,1020.53,2069.03,1481.81,1717.63,1919.43,599.98,620.67,46.86,0000 0000 0000 0000 000000
2015-12-14 10:05:07,0.08,8.21,0.00,12.34,16.52,20.53,15.23,51.73,1020.53,2069.04,1481.03,1717.02,1918.98,599.81,620.55,46.91,0000 0000 0000 0000 000000
2015-12-14 10:10:08,0.13,8.21,0.00,12.34,16.52,20.46,15.23,51.69,1020.54,2069.03,1480.33,1716.60,1918.26,599.90,620.68,46.96,0000 0000 0000 0000 000000
2015-12-14 10:15:09,0.04,8.22,0.00,12.31,16.52,20.53,15.31,51.66,1020.53,2069.01,1479.87,1716.01,1917.82,600.13,620.83,47.01,0000 0000 0000 0000 000000
2015-12-14 10:20:11,0.12,8.22,0.00,12.30,16.52,20.47,15.24,51.68,1020.53,2069.01,1479.09,1715.63,1917.05,600.03,620.88,47.06,0000 0000 0000 0000 000000
2015-12-14 10:25:12,0.10,8.23,0.00,12.31,16.52,20.45,15.22,51.73,1020.52,2069.02,1478.35,1715.01,1916.58,599.86,620.63,47.11,0000 0000 0000 0000 000000
2015-12-14 10:30:13,0.08,8.23,0.00,12.31,16.52,20.44,15.20,51.59,1020.52,2069.03,1477.74,1714.58,1916.01,599.63,620.39,47.16,0000 0000 0000 0000 000000
2015-12-14 10:35:15,0.08,8.24,0.00,12.30,16.52,20.45,15.26,51.66,1020.52,2069.02,1477.05,1714.04,1915.55,600.08,620.81,47.21,0000 0000 0000 0000 000000
2015-12-14 10:40:16,0.09,8.24,0.00,12.33,16.52,20.43,15.20,51.68,1020.52,2069.05,1476.52,1713.73,1915.01,600.21,620.93,47.26,0000 0000 0000 0000 000000
2015-12-14 10:45:18,0.10,8.25,0.00,12.34,16.52,20.43,15.23,51.77,1020.52,2069.04,1475.77,1713.03,1914.34,600.28,620.93,47.31,0000 0000 0000 0000 000000
2015-12-14 10:50:19,0.09,8.25,0.00,12.33,16.52,20.41,15.29,51.94,1020.52,2069.04,1475.02,1712.59,1913.92,600.07,620.66,47.36,0000 0000 0000 0000 000000
2015-12-14 10:55:20,0.10,8.26,0.00,12.33,16.52,20.47,15.35,51.78,1020.52,2069.07,1474.50,1712.02,1913.14,600.07,620.72,47.41,0000 0000 0000 0000 000000
2015-12-14 11:00:22,0.04,8.26,0.00,12.31,16.52,20.46,15.22,51.73,1020.52,2069.05,1473.99,1711.78,1912.84,599.99,620.76,47.46,0000 0000 0000 0000 000000
2015-12-14 11:05:23,0.14,8.27,0.00,12.32,16.52,20.48,15.33,51.77,1020.52,2069.13,1473.27,1711.06,1912.07,600.26,621.05,47.51,0000 0000 0000 0000 000000
2015-12-14 11:10:24,0.03,8.27,0.00,12.32,16.54,20.55,15.29,51.59,1020.53,2069.06,1472.89,1710.77,1911.74,599.97,620.69,47.56,0000 0000 0000 0000 000000
2015-12-14 11:15:26,0.12,8.28,0.00,12.33,16.54,20.51,15.22,51.59,1020.58,2069.03,1472.11,1710.03,1910.99,600.23,620.89,47.62,0000 0000 0000 0000 000000
2015-12-14 11:20:27,0.14,8.28,0.00,12.32,16.54,20.52,15.17,51.82,1020.58,2069.05,1471.38,1709.47,1910.21,599.59,620.25,47.67,0000 0000 0000 0000 000000
2015-12-14 11:25:28,0.04,8.28,0.00,12.32,16.54,20.51,15.26,51.83,1020.56,2069.04,1470.89,1709.00,1909.81,599.76,620.55,47.72,0000 0000 0000 0000 000000
2015-12-14 11:30:30,0.12,8.29,0.00,12.35,16.54,20.49,15.20,51.68,1020.55,2069.02,1470.10,1708.41,1909.07,599.90,620.61,47.77,0000 0000 0000 0000 000000
2015-12-14 11:35:31,0.09,8.29,0.00,12.36,16.54,20.53,15.19,51.59,1020.62,2069.03,1469.52,1708.00,1908.60,600.03,620.73,47.82,0000 0000 0000 0000 000000
2015-12-14 11:40:33,0.08,8.30,0.00,12.37,16.54,20.47,15.26,51.63,1020.62,2069.03,1468.94,1707.48,1908.00,600.09,620.68,47.87,0000 0000 0000 0000 000000
2015-12-14 11:45:34,0.10,8.30,0.00,12.37,16.55,20.47,15.28,51.77,1020.69,2069.02,1468.12,1707.00,1907.43,599.97,620.76,47.92,0000 0000 0000 0000 000000
2015-12-14 11:50:36,0.07,8.31,0.00,12.37,16.57,20.53,15.31,51.83,1020.77,2069.02,1467.79,1706.54,1906.99,600.37,621.13,47.97,0000 0000 0000 0000 000000
2015-12-14 11:55:37,0.09,8.31,0.00,12.34,16.57,20.48,15.24,51.80,1020.83,2069.02,1467.05,1706.01,1906.31,599.74,620.68,48.02,0000 0000 0000 0000 000000
2015-12-14 12:00:38,0.10,8.32,0.00,12.33,16.57,20.48,15.32,51.64,1020.94,2069.03,1466.58,1705.60,1905.91,600.12,621.05,48.07,0000 0000 0000 0000 000000
2015-12-14 12:05:39,0.06,8.32,0.00,12.33,16.57,20.53,15.28,51.63,1020.95,2069.01,1465.99,1705.01,1905.12,600.10,621.02,48.12,0000 0000 0000 0000 000000
2015-12-14 12:10:41,0.12,8.33,0.00,12.34,16.57,20.54,15.26,51.77,1020.96,2069.01,1465.20,1704.55,1904.81,599.92,620.83,48.17,0000 0000 0000 0000 000000
2015-12-14 12:15:42,0.09,8.33,0.00,12.34,16.57,20.52,15.29,51.64,1021.00,2069.01,1464.60,1704.02,1904.05,600.08,621.05,48.22,0000 0000 0000 0000 000000
2015-12-14 12:20:43,0.07,8.34,0.00,12.31,16.57,20.50,15.31,51.77,1021.01,2069.01,1463.92,1703.67,1903.72,600.02,621.09,48.27,0000 0000 0000 0000 000000
2015-12-14 12:25:45,0.10,8.34,0.00,12.31,16.57,20.51,15.25,51.89,1021.01,2069.01,1463.08,1703.01,1903.02,600.05,621.04,48.32,0000 0000 0000 0000 000000
2015-12-14 12:30:46,0.08,8.34,0.00,12.32,16.57,20.47,15.21,51.77,1021.01,2069.02,1462.76,1702.73,1902.54,599.79,620.79,48.37,0000 0000 0000 0000 000000
2015-12-14 12:35:48,0.08,8.35,0.00,12.32,16.57,20.46,15.23,51.73,1021.01,2069.02,1462.04,1702.05,1902.00,599.92,620.79,48.42,0000 0000 0000 0000 000000
2015-12-14 12:40:49,0.10,8.35,0.00,12.31,16.57,20.53,15.22,51.85,1021.02,2069.02,1461.54,1701.80,1901.32,599.74,620.88,48.48,0000 0000 0000 0000 000000
2015-12-14 12:45:51,0.07,8.36,0.00,12.34,16.58,20.53,15.30,51.74,1021.01,2069.01,1461.00,1701.05,1900.92,599.83,620.76,48.53,0000 0000 0000 0000 000000
2015-12-14 12:50:52,0.09,8.36,0.00,12.35,16.59,20.59,15.34,51.70,1021.01,2069.01,1460.45,1700.84,1900.15,600.25,621.15,48.58,0000 0000 0000 0000 000000
2015-12-14 12:55:53,0.07,8.37,0.00,12.36,16.59,20.52,15.33,51.74,1021.01,2069.01,1459.93,1700.10,1899.85,599.93,620.87,48.63,0000 0000 0000 0000 000000